PAKSAT-MM1

Last updated on Sun Apr 12 2026 00:02:56 GMT+0000 (Coordinated Universal Time)

1 59915U 24104A 26101.17266953 .00000155 00000+0 00000+0 0 9998 2 59915 0.0092 168.9254 0001788 207.2227 283.6120 1.00268613 6851
UTC large
Height (km)
Speed (km/s)
/
Latitude / Longitude
Inclination (degrees)
Orbital Period (minutes)
Azimuth
Elevation
Range (km)
Doppler Factor

Next 0 passes for location: London (51.5072 / 0.1276)

Sorry there are no passes over London.
PAKSAT-MM1